Weather in Nikolaevka

Russia / Kamchatka Krai     53°02′47″N   158°20′00″E
temp.,
°C
wind,
m/s
gust,
m/s
humid.,
%
clouds,
%
prec.,
mm/h
press.,
hPa
HPBL,
m
28 february, sun
sun2800:00−9nnw2381100 1.3 100827
03:00−10nw3382100 0.4 100638
06:00−10nw3378100 1.1 100458
09:00−12wnw4473100 0.1 100446
12:00−8wnw4473100 0.1 1002258
15:00−6w457163 0.0 1000490
18:00−9w448131 0.0 99864
21:00−13w54824 0.0 99741
1 march, mon
mon100:00−14w54829 0.0 99644
03:00−13w548322 0.0 99547
06:00−13w568212 0.0 99596
09:00−12w510810 0.0 996246
12:00−7w916739 0.0 9971157
15:00−6w14187151 0.0 9971375
18:00−8w12187426 0.0 999748
21:00−9w818790 0.0 1002402
2 march, tue
tue200:00−10w1121741 0.0 1004490
03:00−10w1019770 0.0 1006475
06:00−10w714790 0.0 1009236
09:00−13w45770 0.0 101338
12:00−8wnw1317711 0.0 10171534
15:00−7w12157173 0.1 10201751
18:00−10w347858 0.2 102360
21:00−14w338387 0.0 102720
3 march, wed
wed300:00−15w228293 0.0 102820
03:00−14nnw1182100 0.0 102521
06:00−14ne2297100 1.1 102160
09:00−12nnw1195100 3.8 101580
12:00−9nw0192100 7.3 1007168
15:00−7n1192100 5.9 999191
18:00−7nw2296100 15.9 99095
21:00−5ssw1298100 7.4 980112
4 march, thu
thu400:00−4wsw122178100 9.3 9821265
03:00−10w19267536 0.3 9901047
06:00−12w16237621 0.4 9961002
09:00−14w1421769 0.1 10031225
12:00−11w18247433 0.3 10071915
15:00−10w18247319 0.2 10101821
18:00−9sw5148112 0.3 1010812
21:00−7sw9217936 0.3 1008805